Retour au catalogue

FENGYUN 1C DEB

LostSSO
NORAD 32092·DEBRIS·🇨🇳 China

Lancé May 10, 1999 depuis Taiyuan Satellite Launch Center

Loading…

Prochains Passages (prochaines 24 heures)

TLE

PériméSource: Space-Track

Époque: Sep 6, 2022, 23:46 UTC

1 32092U 99025CQJ 22249.99045709  .00001971  00000-0  97166-3 0  9993
2 32092  98.8371 322.6238 0034427 299.0330  60.7397 14.18365333779604

Suivez FENGYUN 1C DEB en temps réel avec AllMySat

Download on the App Store